Location: Unspecified
(40.7945°N, 0.0000°E)
Time: 06:25:55
(UTC+00:00)

Explorer 7 - Pass Details

Date: 27 January 2021
Orbit: 484 x 677 km, 50.3° (Epoch: 28 February)

Event Time Altitude Azimuth Distance (km) Brightness Sun altitude
Rises 09:42:59 0° 300° (WNW) 2,708 9.8 21.4°
Reaches altitude 10° 09:45:12 10° 295° (WNW) 1,844 9.1 21.7°
Maximum altitude 09:49:18 51° 219° (SW) 732 7.9 22.1°
Drops below altitude 10° 09:53:38 10° 144° (SE) 1,955 11.8 22.6°
Sets 09:56:03 0° 139° (SE) 2,890 12.0 22.9°
